SCP
0 0 0 0 0 0 0 0 0 0 0 0 0 0 0 0 0 0 0 0 0 1 1 1 1 1 1 1 1 1 1 1 1 1 0 0 0 0 0 0 0 0 0 0
0 0 0 0 0 0 0 0 0 0 0 0 0 0 0 0 0 0 0 0 1 1 1 1 1 1 1 1 1 1 1 1 1 0 0 0 0 0 0 0 0 0 0 0
0 0 0 0 0 0 0 0 0 0 0 0 0 0 0 0 0 0 0 0 1 1 1 1 1 1 1 1 1 1 1 1 0 0 0 0 0 0 0 0 0 0 0 0
0 0 0 0 0 0 0 0 0 0 0 0 0 0 0 0 0 0 0 0 1 1 1 1 1 1 1 1 1 1 1 1 0 0 0 0 0 0 0 0 0 0 0 0
0 0 0 0 0 0 0 0 0 0 0 0 0 0 0 0 0 0 0 0 1 1 1 1 1 1 1 1 1 1 1 0 0 0 0 0 0 0 0 0 0 0 0 0
0 0 0 0 0 0 0 0 0 0 0 0 0 0 0 0 0 0 0 0 0 1 1 1 1 1 1 1 1 1 0 0 0 0 0 0 0 0 0 0 0 0 0 0
0 0 0 0 0 0 0 0 0 0 0 0 0 0 0 0 0 0 0 0 0 1 1 1 1 1 1 1 1 1 1 0 0 0 0 0 0 0 0 0 0 0 0 0
0 0 0 0 0 0 0 0 0 0 0 0 0 0 0 0 0 0 0 0 0 1 1 1 1 1 1 1 1 1 1 0 0 0 0 0 0 0 0 0 0 0 0 0
0 0 0 0 0 0 0 0 0 0 0 0 0 0 0 0 0 0 0 0 0 0 1 1 1 1 0 0 0 1 1 0 0 0 0 0 0 0 0 0 0 0 0 0
0 0 0 0 0 0 0 0 0 0 0 0 0 0 0 0 0 0 0 0 0 0 1 1 0 0 0 0 0 0 0 0 0 0 0 0 0 0 0 0 0 0 0 0
0 0 0 0 0 0 0 0 0 0 0 0 0 0 0 0 0 0 0 0 0 0 1 1 0 0 0 0 0 0 0 0 0 0 0 0 0 0 0 0 0 0 0 0
0 0 0 0 0 0 0 0 0 0 0 0 0 0 0 0 0 0 0 0 0 0 0 0 0 0 0 0 0 0 0 0 0 0 0 0 0 0 0 0 0 0 0 0
0 0 0 0 0 0 0 0 0 0 0 0 0 0 0 0 0 0 0 0 0 0 0 0 0 0 0 0 0 0 0 0 0 0 0 0 0 0 0 0 0 0 0 0
0 0 0 0 0 0 0 0 0 0 0 0 0 0 0 0 0 0 0 0 0 0 0 0 0 0 0 0 0 0 0 0 0 0 0 0 0 0 0 0 0 0 0 0
0 0 0 0 0 0 0 0 0 0 0 0 0 0 0 0 0 0 0 0 0 0 0 0 0 0 0 0 0 0 0 0 0 0 0 0 0 0 0 0 0 0 0 0
0 0 0 0 0 0 0 0 0 0 0 0 0 0 0 0 0 0 0 0 0 0 0 0 0 0 0 0 0 0 0 0 0 0 0 0 0 0 0 0 0 0 0 0
0 0 0 0 0 0 0 0 0 0 0 0 0 0 0 0 0 0 0 0 0 0 0 0 0 0 0 0 0 0 0 0 0 0 0 0 0 0 0 0 0 0 0 0
0 0 0 0 0 0 0 0 0 0 0 0 0 0 0 0 0 0 0 0 0 0 0 0 0 0 0 0 0 0 0 0 0 0 0 0 0 0 0 0 0 0 0 0
0 0 0 0 0 0 0 0 0 0 0 0 0 0 0 0 0 0 0 0 0 0 0 0 0 0 0 0 0 0 0 0 0 0 0 0 0 0 0 0 0 0 0 0
0 0 0 0 0 0 0 0 0 0 0 0 0 0 0 0 0 0 0 0 0 0 0 0 0 0 0 0 0 0 0 0 0 0 0 0 0 0 0 0 0 0 0 0
0 0 0 0 0 0 0 0 0 0 0 0 0 0 0 0 0 0 0 0 0 0 0 0 0 0 0 0 0 0 0 0 0 0 0 0 0 0 0 0 0 0 0 0
0 0 0 0 0 0 0 0 0 0 0 0 0 0 0 0 0 0 0 0 0 0 0 0 0 0 0 0 0 0 0 0 0 0 0 0 0 0 0 0 0 0 0 0
0 0 0 0 0 0 0 0 0 0 0 0 0 0 0 0 0 0 0 0 0 0 0 0 0 0 0 0 0 0 0 0 0 0 0 0 0 0 0 0 0 0 0 0
0 0 0 0 0 0 0 0 0 0 0 0 0 0 0 0 0 0 0 0 0 0 0 0 0 0 0 0 0 0 0 0 0 0 0 0 0 0 0 0 0 0 0 0
0 0 0 0 0 0 0 0 0 0 0 0 0 0 0 0 0 0 0 0 0 0 0 0 0 0 0 0 0 0 0 0 0 0 0 0 0 0 0 0 0 0 0 0
0 0 0 0 0 0 0 0 0 0 0 0 0 0 0 0 0 0 0 0 0 0 0 0 0 0 0 0 0 0 0 0 0 0 0 0 0 0 0 0 0 0 0 0
Wind_Speed
2 2 5 8 7 7 5 5 7 8 4 1 2 3 3 1 4 5 4 4 5 6 5 5 7 7 6 6 7 6 5 5 5 3 3 2 2 2 2 2 3 3 4 4
1 6 11 8 6 6 6 6 7 6 3 0 0 2 2 1 3 6 6 6 6 6 5 5 6 6 6 6 6 6 6 5 5 4 3 2 2 2 2 2 2 2 3 4
8 8 6 7 7 7 8 7 6 5 4 3 2 4 4 2 0 2 4 6 7 9 8 7 7 6 6 6 6 5 5 4 4 4 3 3 2 2 2 1 1 1 2 3
7 8 6 6 8 7 8 8 6 4 1 3 1 2 6 3 1 1 3 4 5 6 7 7 7 7 6 6 5 5 4 4 4 4 5 5 4 3 2 2 2 2 2 3
7 6 6 8 10 8 8 6 4 3 2 1 1 2 6 2 1 2 2 4 4 5 6 7 7 7 6 6 5 4 4 4 4 5 5 5 4 3 2 2 3 2 1 2
8 6 6 9 9 7 4 1 3 3 3 1 3 3 4 3 4 2 2 4 4 5 5 5 5 5 5 5 5 5 5 4 3 4 5 5 5 5 4 3 3 2 1 1
6 6 6 5 4 4 2 5 3 4 3 4 2 2 5 4 3 3 3 3 4 4 5 6 6 6 5 5 5 6 6 4 4 4 4 5 5 5 5 4 4 3 2 1
4 6 6 4 6 5 4 8 7 4 4 4 1 3 5 2 2 4 5 5 5 5 4 5 6 6 5 6 5 6 6 5 4 4 4 4 5 4 3 4 3 3 2 2
6 6 5 5 5 7 4 4 7 6 2 1 2 1 3 1 2 2 4 4 4 5 5 5 5 5 5 6 5 5 5 5 4 4 4 3 4 4 4 4 3 2 2 2
5 3 5 4 1 1 7 6 5 5 3 2 2 2 4 3 2 1 3 3 2 4 6 5 4 4 4 4 4 4 4 4 4 3 3 3 4 4 4 4 4 3 2 2
3 3 4 1 3 4 2 3 4 4 5 5 3 5 5 8 6 5 3 3 4 5 6 5 4 4 4 4 5 4 4 4 4 4 3 4 3 3 4 3 3 3 3 3
2 4 2 5 4 4 5 6 7 5 4 4 4 5 3 5 5 5 4 2 3 5 5 5 4 4 4 5 4 4 4 4 4 3 3 4 4 4 4 3 3 3 3 2
2 4 2 4 5 4 1 2 4 5 5 4 5 4 1 2 3 3 4 3 3 6 6 5 4 3 3 4 4 4 4 3 4 4 4 3 3 3 3 3 3 3 3 3
4 4 6 7 5 2 2 2 2 5 4 4 5 4 1 1 2 2 3 4 3 5 6 5 4 3 2 3 4 4 4 3 4 4 4 3 3 3 3 3 2 3 3 3
5 3 1 2 2 0 2 3 1 3 5 6 6 6 5 4 5 4 4 4 4 4 4 5 5 3 2 2 3 3 3 3 4 4 4 3 3 3 3 3 3 3 3 3
3 2 1 2 2 2 3 3 1 2 3 5 6 2 2 3 4 4 4 5 5 4 4 5 5 4 4 3 3 3 3 3 4 5 4 3 2 3 3 3 3 3 3 2
1 2 2 2 2 4 3 3 1 2 2 5 5 5 4 4 5 5 4 4 4 5 5 5 5 4 4 3 3 4 3 3 4 4 3 3 3 3 3 4 4 3 3 3
4 3 3 1 2 1 4 1 4 6 3 2 4 4 6 5 5 4 4 4 3 3 5 5 3 3 2 2 2 3 3 3 3 3 3 3 3 3 3 3 3 3 3 3
6 6 3 2 3 2 2 2 1 4 1 0 4 4 5 5 4 2 1 3 4 4 5 5 4 4 3 3 3 3 3 3 3 3 2 2 3 3 2 3 4 3 3 3
4 5 4 2 3 4 3 4 1 5 1 2 3 5 4 5 4 2 1 2 2 4 4 4 3 4 3 3 3 4 3 3 2 2 2 2 3 3 3 3 3 3 3 3
2 2 2 3 2 3 3 5 1 3 4 2 2 4 4 4 5 4 3 3 3 4 4 4 4 4 3 3 4 4 3 2 2 2 1 1 2 3 3 2 2 3 3 3
1 2 1 2 2 4 4 2 2 3 1 2 1 2 3 3 3 4 4 4 4 4 4 4 3 2 2 3 4 3 2 2 1 1 2 2 2 2 2 2 2 2 3 3
2 1 2 2 3 2 1 1 1 3 3 1 2 1 4 5 4 4 4 4 4 4 3 3 3 2 2 3 4 4 2 2 2 2 1 1 1 0 1 2 2 2 3 3
2 2 2 2 1 2 3 3 4 3 3 1 2 2 4 5 5 4 4 4 3 3 3 2 3 2 1 2 2 3 2 2 3 2 1 0 0 1 0 1 2 2 3 3
3 2 2 1 1 3 4 4 4 3 3 3 2 3 4 6 5 4 4 3 3 3 2 3 3 2 2 2 2 2 2 3 2 1 1 0 0 0 0 0 1 2 3 5
2 1 2 2 3 2 2 2 2 2 1 2 2 2 2 5 5 4 3 2 2 2 2 3 2 2 2 2 2 2 2 3 3 1 0 0 0 0 0 0 1 2 2 4
Wind_Direction
218 129 224 230 215 223 247 263 274 274 268 129 198 232 251 196 133 138 143 148 158 156 148 134 138 137 127 127 131 136 134 133 128 126 128 137 160 158 148 163 163 158 156 148
3 243 232 225 234 241 255 265 273 285 299 83 231 304 279 198 170 171 159 151 145 135 130 141 141 136 136 138 141 139 143 145 144 145 145 160 146 154 156 155 146 150 146 145
207 238 226 222 244 247 256 241 242 262 328 29 77 335 310 297 129 152 148 146 145 149 158 161 154 151 147 148 146 142 146 147 147 139 129 116 85 78 82 101 128 139 137 135
231 241 233 235 239 223 255 249 232 245 297 289 133 249 282 282 9 99 141 139 153 155 160 161 156 157 159 158 144 139 151 147 143 139 141 143 140 140 159 149 144 126 116 124
234 221 218 233 242 223 232 242 225 229 205 301 330 148 279 343 295 256 186 155 154 155 162 162 162 162 157 153 148 149 151 150 148 147 148 144 133 136 124 122 123 119 110 118
244 243 211 220 241 230 218 47 9 33 73 300 258 166 267 261 223 219 158 137 143 152 148 146 141 141 140 140 147 146 149 149 150 147 142 143 143 138 131 133 139 136 123 117
267 267 247 218 237 257 135 93 29 355 6 252 251 149 245 248 198 165 147 129 132 128 125 134 135 137 136 139 155 156 153 155 154 143 143 147 150 146 149 154 151 147 138 133
216 264 242 217 199 203 187 142 159 196 220 257 297 205 245 239 158 135 130 120 117 113 117 133 142 141 148 152 155 156 157 156 155 145 144 150 150 143 144 147 148 153 158 166
191 244 259 230 202 170 173 183 174 150 202 208 254 244 314 17 82 101 113 107 118 134 137 140 140 140 149 154 153 152 146 138 137 135 127 123 129 129 130 131 128 134 141 142
171 229 273 264 108 204 165 159 106 123 168 230 259 228 218 215 190 161 137 147 150 146 142 136 126 124 139 145 133 126 124 128 122 129 141 131 123 127 129 124 123 125 122 114
155 178 280 333 183 195 143 133 132 140 158 157 216 257 212 195 190 173 179 184 169 150 140 132 128 128 130 129 127 128 125 123 128 135 136 129 119 119 118 119 126 132 128 125
171 138 232 254 249 199 165 169 152 158 199 165 168 254 256 188 173 160 168 171 146 138 133 123 116 116 124 127 133 140 137 135 138 137 128 124 117 118 121 125 131 132 133 135
132 110 75 335 332 351 80 163 154 142 136 160 169 244 309 120 131 149 143 130 133 130 124 114 109 123 132 131 135 140 139 141 138 132 126 118 122 128 139 145 142 137 134 128
110 114 158 194 222 247 279 275 154 128 152 186 194 189 223 131 140 128 115 113 118 128 128 129 125 122 124 127 134 133 133 137 140 131 129 133 142 146 150 147 141 141 139 137
90 121 170 220 223 213 302 291 215 167 180 178 184 173 201 189 156 146 137 134 126 135 136 142 142 141 133 136 147 144 146 148 143 133 133 151 163 153 143 146 150 144 145 151
60 126 97 344 348 6 342 322 222 161 147 138 128 154 203 153 120 120 135 139 141 151 158 156 152 145 149 161 165 156 156 158 145 142 152 159 151 152 157 161 153 143 145 147
65 116 105 247 302 24 343 312 161 117 104 149 170 183 153 127 145 155 161 155 161 157 145 140 146 152 163 167 162 164 170 157 147 152 159 162 158 165 178 170 156 162 161 142
140 116 126 151 58 196 241 304 117 116 96 133 138 151 153 155 164 158 164 157 153 151 139 131 130 143 157 166 150 152 149 140 145 156 165 162 162 179 186 170 170 177 169 161
148 136 127 130 152 218 277 305 114 136 116 192 148 148 139 122 92 65 143 148 160 156 151 150 156 151 140 141 143 138 141 143 140 154 175 178 173 179 183 187 187 183 169 172
76 104 124 146 157 203 245 294 312 107 139 269 149 153 148 126 126 221 181 107 120 125 128 124 122 117 126 142 132 125 131 124 142 172 179 185 182 183 194 205 195 181 174 182
51 55 134 165 180 233 285 306 19 143 210 233 160 154 148 160 179 182 146 119 128 125 126 127 123 123 142 145 126 124 129 152 197 194 178 177 188 193 193 194 190 172 171 168
140 141 168 145 153 245 321 16 105 183 196 151 130 149 141 139 129 128 123 121 122 121 125 127 125 134 153 146 135 131 155 193 182 165 165 174 184 198 182 177 189 174 169 171
56 155 163 157 191 248 323 106 137 132 117 117 131 155 143 133 136 133 128 134 138 137 140 140 142 139 152 156 148 152 192 175 143 123 134 186 194 214 181 177 184 180 178 182
351 31 89 61 18 5 25 50 58 75 91 104 123 127 127 129 130 127 126 130 127 127 137 137 136 137 168 170 156 167 174 146 126 123 102 7 326 317 321 199 193 188 190 190
321 5 61 77 331 15 23 29 22 23 51 67 67 107 129 125 125 127 126 127 136 137 138 138 144 153 178 164 154 158 146 132 119 122 120 347 357 23 349 306 222 206 209 197
319 273 163 206 222 179 260 327 13 26 58 106 101 86 110 127 132 122 126 134 135 137 137 137 135 143 161 152 150 149 139 139 136 138 191 233 72 159 191 157 344 340 260 234